Wind_Speed
9 10 9 9 9 8 8 8 8 8 8 7 7 7 7 7 7 7 7 7 7 6 6 5 4 4 3 4 4 3 2 2 3 2 2 2 3 3 3 2 2 2
10 10 9 9 9 7 7 8 7 8 8 7 7 7 7 7 7 8 8 7 7 7 7 6 5 5 5 4 4 4 3 3 4 3 2 3 3 4 4 4 3 2
11 10 10 10 10 9 9 8 7 7 7 7 7 7 7 8 8 8 8 8 8 8 7 7 6 6 6 5 5 5 5 4 5 4 3 3 4 4 4 5 4 3
13 11 11 11 10 10 10 9 9 8 8 8 8 8 7 7 8 8 8 8 8 8 8 8 7 7 6 6 6 6 6 5 6 5 4 4 5 5 5 5 5 4
14 12 12 11 10 10 10 9 9 9 9 8 8 8 7 6 7 8 8 9 9 9 8 8 8 8 7 7 7 7 6 6 7 6 6 6 6 6 6 5 4 4
15 14 13 12 10 10 11 10 10 10 9 9 9 9 9 8 7 8 8 9 9 9 9 9 9 8 8 8 8 8 7 7 6 6 7 7 6 7 6 4 4 5
16 16 14 13 13 13 12 11 11 10 10 10 10 9 9 9 9 8 8 9 9 9 9 8 8 8 8 8 8 8 8 7 5 5 7 7 6 7 7 5 5 6
16 16 16 15 15 14 14 13 12 12 11 11 11 10 9 10 10 10 9 9 9 8 8 7 7 8 8 8 8 8 8 8 7 7 7 7 7 7 7 7 7 7
16 16 16 16 16 15 15 15 14 14 13 13 12 11 11 10 10 10 10 9 9 8 8 7 7 8 8 8 7 7 8 8 8 7 8 8 8 8 8 8 8 8
17 17 17 17 16 16 16 16 15 14 14 14 13 12 12 11 10 10 10 10 9 9 9 8 8 8 9 9 8 8 8 8 8 7 8 8 8 8 8 8 8 8
18 18 18 18 17 17 16 16 15 14 15 14 14 13 12 12 12 10 10 11 10 10 10 10 9 9 9 9 10 9 9 9 9 9 9 9 9 9 9 9 9 9
18 17 18 18 18 17 17 16 15 14 15 14 14 13 12 12 12 11 11 11 11 11 11 11 10 10 10 10 11 11 10 10 10 10 10 10 10 10 10 10 10 10
18 17 17 18 17 17 17 16 16 16 15 14 14 13 12 11 12 12 12 11 11 11 11 11 11 11 11 12 12 11 10 10 10 11 10 10 10 10 10 11 11 11
18 17 17 16 16 17 16 15 15 16 15 15 15 14 13 13 12 12 12 12 12 12 11 11 12 11 12 13 12 11 10 10 10 11 11 10 10 10 10 11 11 11
18 17 17 16 15 16 16 15 14 13 14 14 14 14 13 13 13 12 12 12 12 12 12 12 12 12 12 12 12 10 9 10 10 11 13 11 10 10 11 11 11 11
17 17 17 16 16 15 15 15 14 13 13 13 13 13 13 12 12 13 13 12 12 12 13 13 11 9 11 13 13 11 9 9 9 11 14 13 11 10 11 12 12 12
15 16 16 17 17 16 15 15 15 14 14 13 13 14 14 13 12 13 13 13 12 12 13 12 10 8 10 13 14 13 11 9 9 11 13 14 12 11 12 12 12 12
13 13 14 14 14 15 16 14 12 12 11 12 13 14 14 14 14 13 13 13 13 13 12 9 9 10 11 13 15 15 13 11 11 12 13 14 14 13 13 13 13 12
13 13 13 13 12 13 14 13 11 10 10 11 12 12 13 13 14 13 13 13 13 13 9 6 8 10 11 12 14 14 14 14 14 14 14 14 14 13 12 13 13 12
14 14 14 14 13 12 11 10 9 10 10 10 11 11 12 12 13 13 13 13 13 12 7 6 8 10 9 10 11 11 14 15 14 14 15 15 15 14 14 14 13 12
12 13 13 12 11 10 8 9 11 12 11 10 10 10 11 12 13 14 13 12 13 12 7 4 6 8 7 9 10 10 13 13 12 13 14 15 15 14 12 11 11 11
11 11 10 10 10 9 9 11 12 13 14 13 13 12 12 12 11 12 11 10 10 11 10 5 3 6 6 7 8 8 9 9 9 11 12 14 13 10 7 7 8 8
16 15 13 14 14 12 12 12 11 12 13 14 15 14 13 13 10 6 6 6 4 9 11 6 3 3 3 5 6 7 7 6 7 8 9 10 9 7 6 6 6 4
15 15 14 15 15 13 13 12 11 11 11 11 12 11 9 10 9 5 9 10 11 13 11 8 6 2 1 3 5 6 7 7 7 8 8 7 6 6 5 3 3 3
12 13 13 13 13 12 11 11 10 11 10 9 10 10 7 7 9 12 15 15 15 14 13 11 10 7 5 3 1 3 5 4 4 6 6 4 3 4 4 3 3 5
12 13 13 13 14 13 12 10 10 9 8 9 11 11 12 15 16 17 16 15 14 12 12 12 11 10 9 7 5 2 1 1 2 3 3 2 5 5 3 2 2 6
Wind_Direction
174 175 179 176 175 177 172 173 177 179 184 185 185 185 183 183 181 181 183 180 183 187 182 183 186 190 202 203 211 224 224 230 234 217 223 261 282 288 287 280 285 302
180 175 178 179 177 177 176 177 180 180 184 187 183 177 177 181 180 182 183 180 184 187 185 188 190 195 203 204 208 218 224 234 241 233 225 249 273 279 281 279 270 270
185 181 181 185 181 182 185 182 182 187 187 185 185 183 182 181 182 185 187 187 190 188 187 193 194 197 204 204 208 219 222 227 237 240 233 243 261 270 273 276 275 264
189 188 187 191 187 183 187 184 185 192 191 187 186 188 186 181 179 184 188 190 193 192 190 196 199 198 203 206 209 220 222 224 232 238 241 245 255 266 267 269 276 279
189 191 190 193 189 184 189 191 191 192 191 191 187 185 185 183 182 185 189 192 195 199 197 196 201 201 202 204 211 221 225 226 226 225 236 247 250 256 259 261 264 271
189 191 191 192 190 189 193 195 196 195 191 191 190 188 187 190 196 196 194 196 199 203 203 200 201 204 204 205 212 222 227 234 227 215 226 244 250 255 257 256 256 260
191 191 191 193 192 193 196 193 196 199 196 193 191 193 194 193 200 202 198 201 204 205 207 205 202 205 208 207 212 220 226 235 232 219 230 241 246 253 258 257 253 253
193 192 193 197 195 195 196 194 195 197 198 197 194 194 198 196 197 200 199 201 204 206 209 207 201 205 214 214 215 220 224 229 229 227 236 244 246 248 251 252 252 250
194 194 196 200 199 198 199 197 195 194 196 199 198 194 195 198 199 197 195 198 203 202 203 206 203 208 219 221 219 223 227 231 232 229 231 238 243 245 246 249 249 250
195 197 198 201 203 204 205 204 198 193 195 199 202 198 191 193 201 198 190 195 203 200 198 207 210 213 222 223 222 224 229 234 236 233 234 237 242 243 243 245 247 249
199 200 199 201 205 206 207 210 205 195 195 200 206 206 195 188 196 201 193 194 205 206 203 207 211 215 221 223 225 225 225 230 231 230 232 235 239 241 239 241 244 246
204 205 204 203 206 209 207 208 207 202 198 199 206 211 204 193 194 200 201 201 208 211 206 206 210 214 216 222 230 229 225 229 229 227 229 232 235 237 237 238 240 242
203 206 209 206 206 212 212 207 205 205 202 199 206 213 212 206 200 197 202 207 211 214 213 208 209 213 215 220 230 235 235 237 238 237 234 232 237 239 238 240 240 239
201 205 210 209 207 211 217 216 210 207 205 202 204 209 211 213 211 204 203 208 210 214 219 213 210 216 220 222 226 232 238 239 244 252 248 239 241 243 242 246 245 241
199 201 206 209 208 207 213 219 217 212 210 207 206 210 213 214 215 214 213 212 207 208 219 222 219 218 221 225 226 225 231 237 242 259 263 252 245 246 248 250 250 249
199 200 202 205 207 205 207 213 216 213 212 210 207 213 219 217 216 218 220 221 212 207 216 224 225 222 218 223 230 227 226 237 241 251 261 258 249 249 252 254 255 256
193 195 197 200 203 204 205 209 212 213 213 212 209 211 215 217 218 218 220 224 220 215 220 222 220 224 216 214 223 227 224 235 246 247 254 260 258 254 254 257 259 259
189 186 186 191 195 197 198 200 201 203 202 201 202 205 207 210 214 216 217 223 224 225 229 219 206 215 216 210 215 221 222 233 249 253 253 256 257 256 258 262 262 263
192 185 179 183 188 190 188 183 180 186 191 191 196 201 205 209 212 214 216 220 225 229 227 195 187 203 211 210 213 220 230 240 249 256 259 259 258 259 259 260 262 264
203 196 192 193 196 195 186 177 180 189 192 195 199 201 205 209 210 212 214 214 220 222 201 165 189 201 206 217 225 234 243 248 250 254 259 261 263 265 263 261 264 265
211 207 207 203 196 192 188 188 194 195 192 195 200 204 211 212 213 214 210 207 212 207 170 150 207 213 215 229 237 242 244 246 249 253 259 261 262 266 267 269 274 273
208 207 211 210 203 200 200 200 201 200 202 205 206 209 213 213 216 215 205 202 205 185 150 123 192 210 218 230 233 241 243 245 251 257 262 263 265 276 296 318 325 312
193 193 196 200 201 201 200 199 200 201 203 206 208 212 214 218 229 223 188 179 143 136 135 120 122 186 221 239 244 248 249 255 265 268 268 270 277 288 304 331 340 325
175 178 179 182 187 192 192 193 197 201 201 200 200 203 208 219 222 170 134 123 94 89 97 91 84 96 212 254 265 264 255 257 272 277 277 287 300 294 296 331 337 295
164 167 162 159 164 170 173 175 182 193 197 185 176 170 145 133 147 136 122 112 100 92 89 86 83 76 68 58 330 276 250 253 285 283 273 288 335 325 311 329 336 335
151 155 149 141 140 140 138 139 143 153 160 148 145 148 126 109 116 125 121 114 114 112 101 91 84 72 63 58 48 40 198 186 9 343 318 355 23 18 356 324 346 3
Height
849 851 852 853 854 855 855 856 857 859 859 860 861 862 862 863 864 865 866 867 868 868 869 870 870 871 871 872 872 872 872 873 873 873 873 874 874 873 873 873 873 873
849 850 851 852 853 854 855 856 857 858 859 860 860 861 862 863 864 865 865 866 867 868 868 869 869 870 871 871 872 872 872 872 873 873 873 873 873 873 873 873 872 873
848 849 850 851 852 853 854 855 856 857 858 859 860 861 861 862 863 864 865 865 866 867 868 868 869 870 870 871 871 871 872 872 872 872 873 873 873 873 873 872 872 872
847 848 849 850 851 852 853 854 856 856 857 858 859 860 861 861 862 863 864 865 866 866 867 868 868 869 870 870 871 871 871 871 872 872 872 872 873 872 872 872 871 871
846 847 848 849 850 851 852 853 854 855 856 857 858 859 860 861 862 862 863 864 865 866 866 867 867 868 869 869 870 870 870 871 871 871 872 872 872 872 871 871 871 871
845 846 847 848 849 850 851 852 853 854 855 856 857 858 859 860 861 861 863 863 864 865 865 866 867 867 868 868 869 869 869 870 870 870 871 871 871 871 870 870 870 871
843 844 846 847 848 849 850 851 852 853 853 854 855 856 857 858 860 860 861 862 863 864 864 865 866 866 867 867 868 868 868 869 869 869 870 870 870 870 870 870 870 870
842 843 844 845 846 848 848 849 850 851 852 853 854 855 856 857 858 859 860 861 862 863 863 864 865 865 866 867 867 868 868 868 868 869 869 869 869 869 869 869 869 869
840 841 843 844 845 846 846 847 848 849 851 852 852 853 854 856 857 858 859 860 861 862 863 863 864 865 865 866 866 867 867 867 867 867 868 868 868 868 868 869 869 869
838 839 841 842 843 844 844 845 846 847 849 850 851 851 852 854 856 856 858 859 860 861 862 863 863 864 864 865 865 866 866 866 866 866 867 867 867 867 867 867 867 867
836 837 839 840 841 842 843 843 844 846 848 849 850 850 851 853 854 855 857 858 859 860 860 861 862 862 863 863 864 864 864 865 865 865 866 865 866 866 866 866 866 866
834 835 836 838 839 839 840 842 843 845 847 848 849 850 849 850 852 854 856 856 858 858 859 860 861 861 862 862 863 862 863 863 864 864 864 864 864 864 864 864 864 864
832 834 835 835 837 838 838 839 841 843 845 847 848 849 849 849 850 852 854 855 856 857 857 858 858 859 860 861 861 861 862 862 863 862 862 862 863 862 862 863 862 863
831 833 833 834 836 837 837 838 838 840 842 844 846 847 848 848 849 850 851 852 854 855 855 855 856 858 859 859 860 860 861 862 862 862 862 861 861 861 861 861 861 861
830 831 832 833 835 836 837 837 837 839 840 842 844 845 846 847 848 848 849 849 851 853 854 854 854 855 857 858 859 859 860 860 861 862 863 861 860 860 860 860 859 859
828 830 831 832 833 835 836 836 837 838 839 841 842 844 845 845 846 847 848 848 849 851 852 852 852 853 854 856 857 857 859 860 860 861 862 861 859 859 859 859 858 858
827 828 829 831 832 833 835 836 837 838 838 840 841 843 844 845 845 846 846 847 848 849 850 851 850 851 853 855 856 856 858 859 859 860 861 860 859 858 858 858 857 857
825 826 827 829 830 831 832 834 836 837 838 839 840 841 843 843 844 845 845 846 847 847 849 849 849 849 851 853 854 855 857 858 859 859 859 859 858 857 857 857 856 855
824 825 826 827 828 829 830 832 834 836 837 838 839 840 841 842 843 843 844 845 845 846 847 847 848 849 850 852 853 854 855 856 857 858 857 857 857 856 856 856 855 855
823 824 825 827 827 827 828 830 833 835 836 838 838 839 840 840 841 841 842 843 843 845 846 846 847 848 849 850 852 852 853 854 855 856 856 855 855 855 854 855 854 854
823 824 826 827 828 828 829 831 833 834 836 837 838 839 839 839 839 839 840 841 842 843 845 845 846 847 848 849 850 851 852 853 854 854 854 854 854 854 854 854 854 853
823 825 827 828 830 831 831 832 834 834 835 836 836 837 837 837 838 838 838 840 840 841 842 843 845 846 847 848 849 850 851 852 853 853 853 853 853 853 853 853 853 853
822 824 826 828 830 831 832 833 834 834 835 835 835 836 836 836 836 837 838 841 841 840 840 842 844 846 847 848 849 850 850 851 852 852 852 853 853 852 853 854 853 853
822 823 824 826 828 829 831 832 833 834 835 834 834 835 835 835 836 838 841 842 842 842 842 843 845 846 846 847 848 849 850 851 852 852 852 853 853 852 852 854 853 853
821 822 823 824 826 828 829 831 833 835 836 835 834 834 835 835 837 840 843 842 842 844 844 845 846 846 847 847 848 849 850 850 851 852 852 853 853 852 853 854 854 854
821 822 823 824 826 827 829 831 833 835 836 836 835 835 836 837 838 841 843 842 841 844 846 846 847 847 847 848 848 849 850 850 851 851 851 852 853 853 854 856 857 856